| time (UTC) | temp F | wind direction | speed MPH | gust MPH | rain 1hr in | rain 24hr in | rain mn in | humidity % | barometer mb |
| 20260503040037 | 54 | 360 | 1.0 | 4.0 | 0.02 | 0.04 | 0.04 | 81 | 1011.0 |
| 20260503034531 | 55 | 360 | 0.0 | 1.0 | 0.02 | 0.04 | 0.04 | 80 | 1011.2 |
| 20260503033030 | 55 | 360 | 0.0 | 8.0 | 0.01 | 0.03 | 0.03 | 71 | 1011.3 |
| 20260503031526 | 57 | 360 | 3.0 | 5.0 | 0.00 | 0.02 | 0.02 | 67 | 1011.2 |
| 20260503030027 | 57 | 360 | 0.0 | 4.0 | 0.00 | 0.02 | 0.02 | 62 | 1011.2 |
| 20260503024523 | 58 | 360 | 1.0 | 5.0 | 0.00 | 0.02 | 0.02 | 59 | 1010.6 |
| 20260503023024 | 58 | 360 | 1.0 | 8.0 | 0.00 | 0.02 | 0.02 | 59 | 1010.1 |
| 20260503021522 | 58 | 360 | 2.0 | 8.0 | 0.00 | 0.02 | 0.02 | 59 | 1009.7 |
| 20260503020022 | 59 | 360 | 5.0 | 10.0 | 0.00 | 0.02 | 0.02 | 58 | 1009.7 |
| 20260503014524 | 60 | 360 | 5.0 | 10.0 | 0.00 | 0.02 | 0.02 | 58 | 1009.5 |
| 20260503013022 | 61 | 360 | 6.0 | 10.0 | 0.00 | 0.02 | 0.02 | 57 | 1009.4 |
| 20260503011523 | 61 | 360 | 4.0 | 7.0 | 0.01 | 0.02 | 0.02 | 54 | 1009.3 |
| 20260503010025 | 61 | 360 | 1.0 | 10.0 | 0.02 | 0.02 | 0.02 | 56 | 1009.3 |
| 20260503004519 | 60 | 360 | 5.0 | 18.0 | 0.02 | 0.02 | 0.02 | 55 | 1009.4 |
| 20260503003017 | 60 | 360 | 6.0 | 11.0 | 0.02 | 0.02 | 0.02 | 56 | 1009.7 |
| 20260503001516 | 65 | 360 | 8.0 | 19.0 | 0.01 | 0.01 | 0.01 | 44 | 1008.7 |
| 20260503000016 | 68 | 360 | 5.0 | 11.0 | 0.00 | 0.00 | 0.00 | 30 | 1008.1 |
| 20260502234524 | 68 | 360 | 1.0 | 8.0 | 0.00 | 0.00 | 0.00 | 29 | 1008.1 |
| 20260502233015 | 68 | 360 | 2.0 | 19.0 | 0.00 | 0.00 | 0.00 | 35 | 1008.3 |
| 20260502231513 | 73 | 360 | 4.0 | 10.0 | 0.00 | 0.00 | 0.00 | 26 | 1008.1 |
| 20260502230012 | 74 | 360 | 3.0 | 9.0 | 0.00 | 0.00 | 0.00 | 25 | 1007.9 |
| 20260502224512 | 74 | 360 | 1.0 | 5.0 | 0.00 | 0.00 | 0.00 | 25 | 1008.1 |
| 20260502223009 | 74 | 360 | 3.0 | 8.0 | 0.00 | 0.00 | 0.00 | 24 | 1008.3 |
| 20260502221507 | 73 | 360 | 0.0 | 6.0 | 0.00 | 0.00 | 0.00 | 26 | 1008.4 |
| 20260502220006 | 72 | 360 | 2.0 | 7.0 | 0.00 | 0.00 | 0.00 | 24 | 1008.7 |
| 20260502214513 | 72 | 360 | 1.0 | 11.0 | 0.00 | 0.00 | 0.00 | 24 | 1008.9 |
| 20260502213003 | 72 | 360 | 11.0 | 16.0 | 0.00 | 0.00 | 0.00 | 23 | 1009.1 |
| 20260502211507 | 72 | 360 | 6.0 | 10.0 | 0.00 | 0.00 | 0.00 | 25 | 1009.1 |
| 20260502210007 | 73 | 360 | 0.0 | 6.0 | 0.00 | 0.00 | 0.00 | 25 | 1009.2 |
| 20260502204504 | 74 | 360 | 0.0 | 7.0 | 0.00 | 0.00 | 0.00 | 25 | 1009.3 |
| 20260502203104 | 73 | 360 | 1.0 | 8.0 | 0.00 | 0.00 | 0.00 | 26 | 1009.3 |
| 20260502201559 | 73 | 360 | 3.0 | 8.0 | 0.00 | 0.00 | 0.00 | 28 | 1009.4 |
| 20260502200059 | 76 | 360 | 0.0 | 11.0 | 0.00 | 0.00 | 0.00 | 31 | 1009.5 |
| 20260502194556 | 76 | 360 | 4.0 | 9.0 | 0.00 | 0.00 | 0.00 | 22 | 1009.6 |
| 20260502193055 | 77 | 360 | 6.0 | 13.0 | 0.00 | 0.00 | 0.00 | 21 | 1009.8 |
| 20260502191554 | 80 | 360 | 3.0 | 9.0 | 0.00 | 0.00 | 0.00 | 20 | 1009.9 |
| 20260502190051 | 78 | 360 | 1.0 | 8.0 | 0.00 | 0.00 | 0.00 | 21 | 1009.9 |
| 20260502184556 | 77 | 360 | 0.0 | 4.0 | 0.00 | 0.00 | 0.00 | 22 | 1010.0 |
| 20260502183046 | 73 | 360 | 0.0 | 4.0 | 0.00 | 0.00 | 0.00 | 24 | 1010.2 |
| 20260502181545 | 71 | 360 | 0.0 | 1.0 | 0.00 | 0.00 | 0.00 | 26 | 1010.4 |
| 20260502163032 | 64 | 360 | 0.0 | 2.0 | 0.00 | 0.00 | 0.00 | 32 | 1010.9 |
| 20260502161529 | 63 | 360 | 0.0 | 4.0 | 0.00 | 0.00 | 0.00 | 33 | 1011.0 |
| 20260502151524 | 55 | 360 | 0.0 | 0.0 | 0.00 | 0.00 | 0.00 | 43 | 1011.5 |
| 20260502123015 | 45 | 360 | 0.0 | 0.0 | 0.00 | 0.00 | 0.00 | 55 | 1010.7 |
| 20260502121533 | 45 | 360 | 0.0 | 0.0 | 0.00 | 0.00 | 0.00 | 52 | 1010.6 |
| 20260502114509 | 46 | 360 | 0.0 | 0.0 | 0.00 | 0.00 | 0.00 | 48 | 1010.7 |
| 20260502113008 | 46 | 360 | 0.0 | 0.0 | 0.00 | 0.00 | 0.00 | 50 | 1010.7 |
| 20260502111506 | 47 | 360 | 0.0 | 0.0 | 0.00 | 0.00 | 0.00 | 51 | 1010.7 |
| 20260502110004 | 47 | 360 | 0.0 | 0.0 | 0.00 | 0.00 | 0.00 | 50 | 1010.7 |
| 20260502104501 | 48 | 360 | 0.0 | 0.0 | 0.00 | 0.00 | 0.00 | 47 | 1010.7 |
| 20260502103110 | 49 | 360 | 0.0 | 0.0 | 0.00 | 0.00 | 0.00 | 45 | 1010.7 |
| 20260502101611 | 49 | 360 | 0.0 | 0.0 | 0.00 | 0.00 | 0.00 | 46 | 1010.5 |
| 20260502070027 | 55 | 360 | 0.0 | 1.0 | 0.00 | 0.00 | 0.00 | 31 | 1011.8 |
| 20260502064528 | 55 | 360 | 0.0 | 0.0 | 0.00 | 0.00 | 0.00 | 29 | 1011.8 |
| 20260502063029 | 56 | 360 | 0.0 | 0.0 | 0.00 | 0.00 | 0.00 | 31 | 1011.8 |
| 20260502061524 | 57 | 360 | 0.0 | 0.0 | 0.00 | 0.00 | 0.00 | 28 | 1011.8 |
| 20260502060024 | 58 | 360 | 0.0 | 0.0 | 0.00 | 0.00 | 0.00 | 26 | 1012.0 |
| 20260502054532 | 58 | 360 | 0.0 | 0.0 | 0.00 | 0.00 | 0.00 | 25 | 1011.9 |
| 20260502053025 | 59 | 360 | 0.0 | 0.0 | 0.00 | 0.00 | 0.00 | 23 | 1011.9 |
| 20260502051523 | 61 | 360 | 0.0 | 0.0 | 0.00 | 0.00 | 0.00 | 21 | 1011.9 |
| 20260502050030 | 62 | 360 | 0.0 | 5.0 | 0.00 | 0.00 | 0.00 | 19 | 1011.9 |
| 20260502044523 | 62 | 360 | 0.0 | 0.0 | 0.00 | 0.00 | 0.00 | 19 | 1011.9 |
| 20260502043021 | 63 | 360 | 0.0 | 4.0 | 0.00 | 0.00 | 0.00 | 17 | 1011.7 |
| 20260502041522 | 65 | 360 | 2.0 | 7.0 | 0.00 | 0.00 | 0.00 | 15 | 1011.6 |